Tracking 26911 objects as of 8-Feb-2023
HD Live streaming from Space Station
objects crossing your sky now

NOAA 17 DEB

Track NOAA 17 DEB now!
10-day predictions


NORAD ID: 48163
Int'l Code: 2002-032D
Perigee: 687.2 km
Apogee: 801.7 km
Inclination: 98.6 °
Period: 99.6 minutes
Semi major axis: 7115 km
RCS: Unknown
Launch date: June 24, 2002
Source: United States (US)
Launch site: AIR FORCE WESTERN TEST RANGE (AFWTR)

Note: This is SATELLITE DEBRIS
Your satellite tracking list
Your tracking list is empty




NASA's NSSDC Master Catalog

Two Line Element Set (TLE):
1 48163U 02032D   23035.70283288  .00015525  00000-0  41524-2 0  9996
2 48163  98.5996 355.6710 0080438 145.3038 215.3438 14.46440738 96208
Source of the keplerian elements: AFSPC